OneWeb SL0171

operational
NORAD ID: 48070 Int'l Des: 2021-025 Owner: ONEWEBN Country: UK Constellation: oneweb
LEOCIRCULARPOLARONEWEB_TYPE

OneWeb SL0171について

説明を読み込み中...

リアルタイム位置

3D地球を読み込み中...

次回通過

高度履歴

Altitude vs Time

uPlot chart will show altitude changes over time

軌道要素

1 48070U 21025AE 26095.19249767 .00000359 00000-0 94887-3 0 9992
2 48070 87.8996 334.7655 0001821 81.1901 278.9435 13.13469156244033
Epoch: Apr 5, 2026 • Age: 7 hours

現在のステータス

高度 1239.8 km
速度 7.23 km/s
衛星直下点 -84.42°S, 53.52°W
打ち上げ日 Mar 25, 2021
運用期間 5 years
タイプ internet

技術仕様

分類 Payload
質量 148.00 kg
乾燥質量 140.00 kg
総質量 148.00 kg
長さ 1.30 m
直径 1.00 m
スパン 5.00 m
形状 Trapezoid+2 pan
製造者 ONEWUS
バスタイプ ARROW
フェーズステータス In Orbit
所有者/国 ONEWEBN/UK

大規模コンステレーション

Loading constellations...